Fargo, ND

2:00 PM CDT on August 21, 2017 (GMT -0500)
Hector International

Weather History for KFAR - April, 2012

Change the Weather History Date:

Saturday, April 28, 2012

  Actual Average Record
Temperature  
Mean Temperature 46 °F 51 °F  
Max Temperature 48 °F 63 °F 91 °F (2004)
Min Temperature 43 °F 38 °F 16 °F (1956)
Degree Days  
Heating Degree Days 19 15  
Month to date heating degree days 477 598  
Since 1 July heating degree days 6628 8428  
Cooling Degree Days 0 0  
Month to date cooling degree days 0 0  
Year to date cooling degree days 6 0  
Moisture  
Dew Point 33 °F    
Average Humidity 63    
Maximum Humidity 76    
Minimum Humidity 49    
Precipitation  
Precipitation 0.02 in 0.06 in 1.72 in (1918)
Month to date precipitation 1.10 1.23  
Year to date precipitation 3.41 3.84  
Snow  
Snow 0.00 in 0.10 in 3.20 in (1994)
Month to date snowfall T 2.9  
Since 1 July snowfall 27.0 50.0  
Snow Depth 0.00 in    
Sea Level Pressure  
Sea Level Pressure 30.07 in    
Wind  
Wind Speed 14 mph (SE)    
Max Wind Speed 23 mph    
Max Gust Speed 29 mph    
Visibility 10 miles    
Events Rain    
T = Trace of Precipitation, MM = Missing Value Source: NWS Daily Summary

Daily Weather History Graph

Daily Weather History Graph

Search for Another Location

Airport or City:

Trip Planner

Search our weather history database for the weather conditions in past years. The results will help you decide how hot, cold, wet, or windy it might be!

Date:

Astronomy

Apr. 28, 2012 Rise Set
Actual Time 6:15 AM CDT 8:34 PM CDT
Civil Twilight 5:42 AM CDT 9:07 PM CDT
Nautical Twilight 5:00 AM CDT 9:49 PM CDT
Astronomical Twilight 4:13 AM CDT 10:37 PM CDT
Moon 11:55 AM CDT (4/28) 2:02 AM CDT (4/28)
Length of Visible Light 15h 25m
Length of Day
14h 18m
Waxing Crescent, 43% of the Moon is Illuminated
Apr 28
Waxing Crescent
Apr 29
First Quarter
May 5
Full
May 12
Last Quarter
May 20
New

Hourly Weather History & Observations

Time (CDT) Temp. Windchill Dew Point Humidity Pressure Visibility Wind Dir Wind Speed Gust Speed Precip Events Conditions
12:53 AM 46.9 °F - 30.9 °F 54% 30.01 in 10.0 mi East 11.5 mph - 0.00 in   Overcast
1:53 AM 45.0 °F 38.2 °F 30.9 °F 58% 30.02 in 10.0 mi East 15.0 mph - 0.00 in   Overcast
2:53 AM 43.0 °F 37.2 °F 30.9 °F 62% 30.02 in 10.0 mi East 10.4 mph - 0.00 in   Overcast
3:53 AM 45.0 °F 39.3 °F 32.0 °F 60% 30.01 in 10.0 mi ESE 11.5 mph - N/A   Overcast
4:53 AM 44.1 °F 39.0 °F 30.9 °F 60% 30.01 in 10.0 mi East 9.2 mph - N/A   Overcast
5:53 AM 42.8 °F 36.2 °F 28.4 °F 57% 29.98 in 10.0 mi East 12.7 mph - N/A   Overcast
6:53 AM 43.0 °F 36.4 °F 28.0 °F 56% 30.01 in 10.0 mi East 12.7 mph - N/A   Overcast
7:53 AM 44.1 °F 37.4 °F 26.1 °F 49% 30.02 in 10.0 mi East 13.8 mph - N/A   Overcast
8:53 AM 46.0 °F 38.8 °F 28.0 °F 50% 30.03 in 10.0 mi ESE 18.4 mph - N/A   Scattered Clouds
9:53 AM 46.9 °F - 28.0 °F 48% 30.04 in 10.0 mi SE 17.3 mph 23.0 mph N/A   Overcast
10:53 AM 46.9 °F - 28.0 °F 48% 30.05 in 10.0 mi ESE 20.7 mph 26.5 mph N/A   Overcast
11:53 AM 46.9 °F - 28.9 °F 50% 30.07 in 10.0 mi SE 19.6 mph 25.3 mph N/A   Overcast
12:53 PM 46.9 °F - 28.9 °F 50% 30.09 in 10.0 mi SE 11.5 mph - N/A   Overcast
1:53 PM 48.0 °F - 30.0 °F 50% 30.09 in 10.0 mi SE 13.8 mph 20.7 mph N/A   Overcast
2:53 PM 46.9 °F - 34.0 °F 61% 30.11 in 10.0 mi South 17.3 mph 23.0 mph N/A   Overcast
3:53 PM 44.1 °F 37.4 °F 37.9 °F 79% 30.10 in 9.0 mi SSE 13.8 mph 20.7 mph 0.01 in Rain Light Rain
4:53 PM 46.0 °F 40.6 °F 37.0 °F 71% 30.10 in 10.0 mi SE 11.5 mph - 0.00 in Rain Light Rain
5:22 PM 44.6 °F 38.4 °F 37.4 °F 76% 30.08 in 8.0 mi SSE 12.7 mph 23.0 mph 0.01 in Rain Light Rain
5:53 PM 44.1 °F 38.6 °F 37.0 °F 76% 30.11 in 9.0 mi SSE 10.4 mph - 0.01 in   Overcast
6:25 PM 44.6 °F 38.1 °F 37.4 °F 76% 30.09 in 10.0 mi SSE 13.8 mph - N/A   Overcast
6:53 PM 44.1 °F 37.7 °F 37.0 °F 76% 30.12 in 10.0 mi SE 12.7 mph - N/A   Overcast
7:09 PM 44.6 °F 38.4 °F 37.4 °F 76% 30.09 in 10.0 mi SE 12.7 mph - N/A   Overcast
7:53 PM 45.0 °F 39.3 °F 37.0 °F 74% 30.13 in 10.0 mi SE 11.5 mph 20.7 mph N/A   Overcast
8:49 PM 44.6 °F 37.8 °F 35.6 °F 71% 30.10 in 10.0 mi SE 15.0 mph - N/A   Overcast
8:53 PM 45.0 °F 38.2 °F 36.0 °F 71% 30.12 in 10.0 mi SE 15.0 mph - N/A   Overcast
9:53 PM 45.0 °F 38.9 °F 36.0 °F 71% 30.14 in 10.0 mi SE 12.7 mph - N/A   Overcast
10:53 PM 45.0 °F 38.5 °F 37.0 °F 74% 30.15 in 10.0 mi SSE 13.8 mph 25.3 mph N/A   Overcast
11:11 PM 44.6 °F 38.4 °F 37.4 °F 76% 30.13 in 10.0 mi SSE 12.7 mph - N/A   Overcast
11:53 PM 45.0 °F 38.5 °F 37.0 °F 74% 30.15 in 10.0 mi SSE 13.8 mph - N/A   Overcast